| time (UTC) | temp C | wind direction | speed KPH | gust KPH | rain 1hr cm | rain 24hr cm | rain mn cm | humidity % | barometer mb |
| 20260508203107 | 22 | 81 | 1.6 | 6.4 | 0.00 | 0.00 | 0.00 | 43 | 1011.9 |
| 20260508202606 | 22 | 262 | 1.6 | 6.4 | 0.00 | 0.00 | 0.00 | 45 | 1012.2 |
| 20260508202033 | 21 | 187 | 1.6 | 6.4 | 0.00 | 0.00 | 0.00 | 43 | 1012.2 |
| 20260508201532 | 21 | 47 | 1.6 | 9.7 | 0.00 | 0.00 | 0.00 | 48 | 1012.2 |
| 20260508200959 | 21 | 12 | 3.2 | 9.7 | 0.00 | 0.00 | 0.00 | 45 | 1012.5 |
| 20260508200425 | 21 | 55 | 4.8 | 9.7 | 0.00 | 0.00 | 0.00 | 42 | 1012.2 |
| 20260508195923 | 21 | 227 | 1.6 | 6.4 | 0.00 | 0.00 | 0.00 | 44 | 1012.2 |
| 20260508195422 | 21 | 147 | 1.6 | 6.4 | 0.00 | 0.00 | 0.00 | 44 | 1012.2 |
| 20260508194920 | 21 | 333 | 3.2 | 6.4 | 0.00 | 0.00 | 0.00 | 47 | 1012.5 |
| 20260508194419 | 21 | 141 | 3.2 | 6.4 | 0.00 | 0.00 | 0.00 | 43 | 1012.5 |
| 20260508193916 | 21 | 61 | 1.6 | 6.4 | 0.00 | 0.00 | 0.00 | 44 | 1012.9 |
| 20260508193414 | 21 | 238 | 3.2 | 6.4 | 0.00 | 0.00 | 0.00 | 43 | 1012.9 |
| 20260508192913 | 21 | 193 | 1.6 | 6.4 | 0.00 | 0.00 | 0.00 | 44 | 1012.9 |
| 20260508192410 | 20 | 221 | 3.2 | 6.4 | 0.00 | 0.00 | 0.00 | 48 | 1013.2 |
| 20260508191837 | 20 | 229 | 1.6 | 8.0 | 0.00 | 0.00 | 0.00 | 48 | 1013.2 |
| 20260508191335 | 20 | 54 | 3.2 | 8.0 | 0.00 | 0.00 | 0.00 | 46 | 1013.2 |
| 20260508190833 | 20 | 13 | 1.6 | 8.0 | 0.00 | 0.00 | 0.00 | 52 | 1013.5 |
| 20260508190332 | 20 | 51 | 3.2 | 8.0 | 0.00 | 0.00 | 0.00 | 47 | 1013.5 |
| 20260508185831 | 20 | 85 | 3.2 | 9.7 | 0.00 | 0.00 | 0.00 | 47 | 1013.9 |
| 20260508185330 | 21 | 57 | 4.8 | 9.7 | 0.00 | 0.00 | 0.00 | 48 | 1013.9 |
| 20260508184828 | 21 | 70 | 1.6 | 6.4 | 0.00 | 0.00 | 0.00 | 48 | 1014.2 |
| 20260508184326 | 21 | 41 | 3.2 | 6.4 | 0.00 | 0.00 | 0.00 | 47 | 1014.2 |
| 20260508183823 | 21 | 260 | 1.6 | 6.4 | 0.00 | 0.00 | 0.00 | 51 | 1014.2 |
| 20260508183322 | 21 | 152 | 1.6 | 6.4 | 0.00 | 0.00 | 0.00 | 48 | 1014.2 |
| 20260508182820 | 21 | 243 | 3.2 | 4.8 | 0.00 | 0.00 | 0.00 | 47 | 1014.2 |
| 20260508182319 | 21 | 236 | 0.0 | 4.8 | 0.00 | 0.00 | 0.00 | 49 | 1014.2 |
| 20260508181643 | 21 | 12 | 1.6 | 4.8 | 0.00 | 0.00 | 0.00 | 52 | 1014.2 |
| 20260508181142 | 20 | 235 | 1.6 | 6.4 | 0.00 | 0.00 | 0.00 | 48 | 1014.6 |
| 20260508180639 | 21 | 54 | 3.2 | 6.4 | 0.00 | 0.00 | 0.00 | 46 | 1014.6 |
| 20260508180138 | 21 | 144 | 3.2 | 6.4 | 0.00 | 0.00 | 0.00 | 48 | 1014.6 |
| 20260508175637 | 21 | 188 | 3.2 | 6.4 | 0.00 | 0.00 | 0.00 | 49 | 1014.6 |
| 20260508175136 | 21 | 267 | 1.6 | 8.0 | 0.00 | 0.00 | 0.00 | 50 | 1014.6 |
| 20260508174633 | 21 | 47 | 1.6 | 8.0 | 0.00 | 0.00 | 0.00 | 49 | 1014.6 |
| 20260508174131 | 21 | 172 | 1.6 | 8.0 | 0.00 | 0.00 | 0.00 | 54 | 1014.6 |
| 20260508173630 | 20 | 196 | 3.2 | 8.0 | 0.00 | 0.00 | 0.00 | 51 | 1014.9 |
| 20260508173129 | 20 | 248 | 1.6 | 4.8 | 0.00 | 0.00 | 0.00 | 50 | 1014.9 |
| 20260508172628 | 20 | 170 | 1.6 | 4.8 | 0.00 | 0.00 | 0.00 | 48 | 1014.9 |
| 20260508172127 | 20 | 123 | 1.6 | 4.8 | 0.00 | 0.00 | 0.00 | 51 | 1014.9 |
| 20260508171624 | 20 | 272 | 1.6 | 4.8 | 0.00 | 0.00 | 0.00 | 54 | 1014.9 |
| 20260508171123 | 20 | 188 | 3.2 | 4.8 | 0.00 | 0.00 | 0.00 | 51 | 1015.2 |
| 20260508170621 | 20 | 143 | 3.2 | 4.8 | 0.00 | 0.00 | 0.00 | 52 | 1015.2 |
| 20260508170120 | 20 | 75 | 1.6 | 4.8 | 0.00 | 0.00 | 0.00 | 56 | 1015.6 |
| 20260508165619 | 20 | 271 | 1.6 | 4.8 | 0.00 | 0.00 | 0.00 | 53 | 1015.6 |
| 20260508165045 | 19 | 192 | 1.6 | 4.8 | 0.00 | 0.00 | 0.00 | 55 | 1015.6 |
| 20260508164543 | 19 | 257 | 1.6 | 8.0 | 0.00 | 0.00 | 0.00 | 58 | 1015.6 |
| 20260508164041 | 19 | 91 | 3.2 | 8.0 | 0.00 | 0.00 | 0.00 | 57 | 1015.9 |
| 20260508163539 | 19 | 280 | 1.6 | 8.0 | 0.00 | 0.00 | 0.00 | 56 | 1015.9 |
| 20260508163037 | 18 | 225 | 3.2 | 8.0 | 0.00 | 0.00 | 0.00 | 57 | 1016.3 |
| 20260508162536 | 18 | 165 | 3.2 | 6.4 | 0.00 | 0.00 | 0.00 | 59 | 1016.3 |
| 20260508162035 | 18 | 224 | 1.6 | 6.4 | 0.00 | 0.00 | 0.00 | 60 | 1016.3 |
| 20260508161503 | 18 | 41 | 1.6 | 6.4 | 0.00 | 0.00 | 0.00 | 62 | 1016.3 |
| 20260508161001 | 18 | 45 | 1.6 | 6.4 | 0.00 | 0.00 | 0.00 | 61 | 1016.3 |
| 20260508160459 | 17 | 269 | 3.2 | 8.0 | 0.00 | 0.00 | 0.00 | 64 | 1016.6 |
| 20260508155958 | 17 | 111 | 1.6 | 8.0 | 0.00 | 0.00 | 0.00 | 61 | 1016.6 |
| 20260508155456 | 17 | 176 | 3.2 | 9.7 | 0.00 | 0.00 | 0.00 | 64 | 1016.6 |
| 20260508154955 | 17 | 169 | 4.8 | 9.7 | 0.00 | 0.00 | 0.00 | 59 | 1016.6 |
| 20260508154452 | 18 | 194 | 4.8 | 8.0 | 0.00 | 0.00 | 0.00 | 61 | 1016.6 |
| 20260508153951 | 17 | 258 | 1.6 | 3.2 | 0.00 | 0.00 | 0.00 | 64 | 1016.6 |
| 20260508153419 | 17 | 335 | 1.6 | 6.4 | 0.00 | 0.00 | 0.00 | 68 | 1016.6 |
| 20260508152847 | 17 | 291 | 1.6 | 6.4 | 0.00 | 0.00 | 0.00 | 71 | 1016.6 |
| 20260508152346 | 17 | 199 | 1.6 | 6.4 | 0.00 | 0.00 | 0.00 | 68 | 1016.9 |
| 20260508151845 | 17 | 185 | 3.2 | 6.4 | 0.00 | 0.00 | 0.00 | 67 | 1016.9 |
| 20260508151311 | 17 | 303 | 1.6 | 4.8 | 0.00 | 0.00 | 0.00 | 71 | 1016.9 |
| 20260508150707 | 17 | 279 | 1.6 | 4.8 | 0.00 | 0.00 | 0.00 | 73 | 1016.9 |
| 20260508150206 | 17 | 208 | 3.2 | 4.8 | 0.00 | 0.00 | 0.00 | 71 | 1016.9 |
| 20260508145633 | 17 | 310 | 1.6 | 8.0 | 0.00 | 0.00 | 0.00 | 70 | 1016.9 |
| 20260508145129 | 17 | 15 | 1.6 | 8.0 | 0.00 | 0.00 | 0.00 | 73 | 1016.9 |
| 20260508144628 | 17 | 286 | 1.6 | 9.7 | 0.00 | 0.00 | 0.00 | 75 | 1016.9 |
| 20260508144126 | 17 | 226 | 1.6 | 9.7 | 0.00 | 0.00 | 0.00 | 75 | 1016.9 |
| 20260508143624 | 16 | 213 | 1.6 | 6.4 | 0.00 | 0.00 | 0.00 | 77 | 1017.3 |
| 20260508143052 | 16 | 210 | 3.2 | 4.8 | 0.00 | 0.00 | 0.00 | 75 | 1017.3 |
| 20260508142551 | 16 | 62 | 1.6 | 4.8 | 0.00 | 0.00 | 0.00 | 75 | 1017.3 |
| 20260508142018 | 16 | 164 | 1.6 | 4.8 | 0.00 | 0.00 | 0.00 | 73 | 1017.3 |
| 20260508141516 | 16 | 208 | 1.6 | 4.8 | 0.00 | 0.00 | 0.00 | 78 | 1017.3 |
| 20260508141014 | 15 | 196 | 3.2 | 4.8 | 0.00 | 0.00 | 0.00 | 79 | 1017.3 |
| 20260508140513 | 15 | 180 | 1.6 | 3.2 | 0.00 | 0.00 | 0.00 | 78 | 1017.3 |
| 20260508140012 | 15 | 210 | 0.0 | 1.6 | 0.00 | 0.00 | 0.00 | 83 | 1017.3 |
| 20260508135440 | 15 | 264 | 1.6 | 1.6 | 0.00 | 0.00 | 0.00 | 84 | 1017.3 |
| 20260508134939 | 14 | 225 | 1.6 | 1.6 | 0.00 | 0.00 | 0.00 | 85 | 1017.6 |
| 20260508134437 | 14 | 238 | 0.0 | 1.6 | 0.00 | 0.00 | 0.00 | 84 | 1017.6 |
| 20260508133935 | 13 | 241 | 1.6 | 1.6 | 0.00 | 0.00 | 0.00 | 87 | 1017.6 |
| 20260508133433 | 13 | 139 | 1.6 | 1.6 | 0.00 | 0.00 | 0.00 | 87 | 1017.6 |
| 20260508132932 | 12 | 56 | 0.0 | 1.6 | 0.00 | 0.00 | 0.00 | 91 | 1017.6 |
| 20260508132431 | 12 | 56 | 1.6 | 1.6 | 0.00 | 0.00 | 0.00 | 93 | 1017.6 |
| 20260508131930 | 11 | 56 | 0.0 | 1.6 | 0.00 | 0.00 | 0.00 | 95 | 1017.6 |
| 20260508131356 | 11 | 56 | 1.6 | 1.6 | 0.00 | 0.00 | 0.00 | 95 | 1017.6 |
| 20260508130824 | 10 | 83 | 1.6 | 1.6 | 0.00 | 0.00 | 0.00 | 95 | 1017.3 |
| 20260508130322 | 10 | 84 | 0.0 | 1.6 | 0.00 | 0.00 | 0.00 | 95 | 1017.3 |
| 20260508125820 | 10 | 86 | 0.0 | 1.6 | 0.00 | 0.00 | 0.00 | 96 | 1017.3 |
| 20260508125318 | 9 | 70 | 0.0 | 3.2 | 0.00 | 0.00 | 0.00 | 95 | 1017.3 |
| 20260508124816 | 9 | 70 | 1.6 | 3.2 | 0.00 | 0.00 | 0.00 | 95 | 1017.3 |
| 20260508124315 | 8 | 73 | 0.0 | 3.2 | 0.00 | 0.00 | 0.00 | 95 | 1017.3 |
| 20260508123814 | 8 | 57 | 1.6 | 3.2 | 0.00 | 0.00 | 0.00 | 95 | 1017.3 |
| 20260508123313 | 8 | 96 | 0.0 | 1.6 | 0.00 | 0.00 | 0.00 | 95 | 1016.9 |
| 20260508122812 | 7 | 96 | 1.6 | 1.6 | 0.00 | 0.00 | 0.00 | 95 | 1016.9 |
| 20260508122311 | 7 | 98 | 0.0 | 0.0 | 0.00 | 0.00 | 0.00 | 95 | 1017.3 |
| 20260508121810 | 7 | 97 | 0.0 | 0.0 | 0.00 | 0.00 | 0.00 | 95 | 1017.3 |
| 20260508121308 | 6 | 98 | 0.0 | 0.0 | 0.00 | 0.00 | 0.00 | 95 | 1017.3 |
| 20260508120807 | 6 | 97 | 0.0 | 0.0 | 0.00 | 0.00 | 0.00 | 95 | 1017.3 |
| 20260508120233 | 6 | 97 | 0.0 | 0.0 | 0.00 | 0.00 | 0.00 | 95 | 1016.9 |
| 20260508115732 | 6 | 97 | 0.0 | 1.6 | 0.00 | 0.00 | 0.00 | 95 | 1016.9 |
| 20260508115231 | 5 | 98 | 0.0 | 1.6 | 0.00 | 0.00 | 0.00 | 95 | 1016.9 |
| 20260508114658 | 5 | 98 | 0.0 | 1.6 | 0.00 | 0.00 | 0.00 | 95 | 1016.6 |
| 20260508114157 | 5 | 98 | 0.0 | 1.6 | 0.00 | 0.00 | 0.00 | 95 | 1016.6 |
| 20260508113623 | 5 | 97 | 0.0 | 0.0 | 0.00 | 0.00 | 0.00 | 95 | 1016.6 |
| 20260508113122 | 5 | 97 | 0.0 | 0.0 | 0.00 | 0.00 | 0.00 | 95 | 1016.6 |
| 20260508112619 | 5 | 97 | 0.0 | 0.0 | 0.00 | 0.00 | 0.00 | 95 | 1016.3 |
| 20260508112118 | 5 | 97 | 0.0 | 0.0 | 0.00 | 0.00 | 0.00 | 95 | 1016.3 |
| 20260508111617 | 5 | 97 | 0.0 | 0.0 | 0.00 | 0.00 | 0.00 | 95 | 1016.3 |
| 20260508111044 | 5 | 98 | 0.0 | 0.0 | 0.00 | 0.00 | 0.00 | 95 | 1016.3 |
| 20260508110542 | 5 | 97 | 0.0 | 0.0 | 0.00 | 0.00 | 0.00 | 95 | 1015.9 |
| 20260508110040 | 5 | 98 | 0.0 | 0.0 | 0.00 | 0.00 | 0.00 | 95 | 1015.9 |
| 20260508105436 | 5 | 97 | 0.0 | 0.0 | 0.00 | 0.00 | 0.00 | 95 | 1015.9 |
| 20260508104935 | 4 | 97 | 0.0 | 0.0 | 0.00 | 0.00 | 0.00 | 95 | 1015.9 |
| 20260508104433 | 5 | 98 | 0.0 | 0.0 | 0.00 | 0.00 | 0.00 | 95 | 1015.9 |
| 20260508103900 | 5 | 97 | 0.0 | 0.0 | 0.00 | 0.00 | 0.00 | 95 | 1015.6 |
| 20260508103359 | 5 | 98 | 0.0 | 0.0 | 0.00 | 0.00 | 0.00 | 95 | 1015.6 |
| 20260508102856 | 5 | 98 | 0.0 | 0.0 | 0.00 | 0.00 | 0.00 | 95 | 1015.6 |
| 20260508102355 | 5 | 98 | 0.0 | 0.0 | 0.00 | 0.00 | 0.00 | 95 | 1015.6 |
| 20260508101751 | 5 | 97 | 0.0 | 0.0 | 0.00 | 0.03 | 0.00 | 95 | 1015.2 |
| 20260508101218 | 5 | 98 | 0.0 | 0.0 | 0.00 | 0.03 | 0.00 | 95 | 1015.2 |
| 20260508100716 | 5 | 97 | 0.0 | 0.0 | 0.00 | 0.03 | 0.00 | 95 | 1015.2 |
| 20260508100213 | 5 | 98 | 0.0 | 0.0 | 0.00 | 0.03 | 0.00 | 95 | 1015.2 |
| 20260508095713 | 5 | 98 | 0.0 | 0.0 | 0.00 | 0.03 | 0.00 | 95 | 1015.2 |
| 20260508095211 | 5 | 98 | 0.0 | 0.0 | 0.00 | 0.03 | 0.00 | 95 | 1015.2 |
| 20260508094710 | 5 | 98 | 0.0 | 0.0 | 0.00 | 0.03 | 0.00 | 95 | 1015.2 |
| 20260508094209 | 5 | 98 | 0.0 | 0.0 | 0.00 | 0.03 | 0.00 | 95 | 1015.2 |
| 20260508093707 | 5 | 98 | 0.0 | 0.0 | 0.00 | 0.03 | 0.00 | 95 | 1015.2 |
| 20260508093133 | 5 | 98 | 0.0 | 0.0 | 0.00 | 0.03 | 0.00 | 95 | 1015.2 |
| 20260508092632 | 5 | 98 | 0.0 | 0.0 | 0.00 | 0.03 | 0.00 | 95 | 1015.2 |
| 20260508092058 | 5 | 98 | 0.0 | 0.0 | 0.00 | 0.03 | 0.00 | 95 | 1015.2 |
| 20260508091556 | 5 | 98 | 0.0 | 0.0 | 0.00 | 0.05 | 0.00 | 95 | 1015.2 |
| 20260508091055 | 5 | 98 | 0.0 | 0.0 | 0.00 | 0.05 | 0.00 | 95 | 1014.9 |
| 20260508090523 | 5 | 97 | 0.0 | 0.0 | 0.00 | 0.05 | 0.00 | 95 | 1015.2 |
| 20260508090021 | 5 | 98 | 0.0 | 0.0 | 0.00 | 0.05 | 0.00 | 95 | 1015.2 |
| 20260508085520 | 5 | 97 | 0.0 | 0.0 | 0.00 | 0.05 | 0.00 | 95 | 1015.2 |
| 20260508085019 | 5 | 97 | 0.0 | 0.0 | 0.00 | 0.05 | 0.00 | 95 | 1014.9 |
| 20260508084447 | 6 | 97 | 0.0 | 1.6 | 0.00 | 0.08 | 0.00 | 95 | 1014.9 |
| 20260508083943 | 6 | 98 | 0.0 | 1.6 | 0.00 | 0.08 | 0.00 | 95 | 1015.2 |
| 20260508083442 | 6 | 97 | 0.0 | 1.6 | 0.00 | 0.08 | 0.00 | 95 | 1015.2 |
| 20260508082939 | 6 | 98 | 1.6 | 1.6 | 0.00 | 0.10 | 0.00 | 95 | 1015.2 |
| 20260508082438 | 6 | 97 | 0.0 | 0.0 | 0.00 | 0.10 | 0.00 | 95 | 1015.2 |
| 20260508081937 | 6 | 98 | 0.0 | 0.0 | 0.00 | 0.10 | 0.00 | 95 | 1014.9 |
| 20260508081436 | 6 | 97 | 0.0 | 0.0 | 0.00 | 0.10 | 0.00 | 95 | 1014.9 |
| 20260508080935 | 6 | 97 | 0.0 | 0.0 | 0.00 | 0.10 | 0.00 | 95 | 1014.9 |
| 20260508080433 | 6 | 97 | 0.0 | 0.0 | 0.00 | 0.10 | 0.00 | 95 | 1014.9 |
| 20260508075757 | 6 | 97 | 0.0 | 0.0 | 0.00 | 0.10 | 0.00 | 95 | 1014.9 |
| 20260508075256 | 6 | 97 | 0.0 | 0.0 | 0.00 | 0.10 | 0.00 | 95 | 1014.9 |
| 20260508074754 | 6 | 98 | 0.0 | 0.0 | 0.00 | 0.10 | 0.00 | 95 | 1014.9 |
| 20260508074253 | 6 | 97 | 0.0 | 0.0 | 0.00 | 0.10 | 0.00 | 95 | 1014.9 |
| 20260508073752 | 6 | 97 | 0.0 | 0.0 | 0.00 | 0.10 | 0.00 | 95 | 1014.9 |
| 20260508073250 | 6 | 98 | 0.0 | 0.0 | 0.00 | 0.10 | 0.00 | 95 | 1014.9 |
| 20260508072748 | 6 | 97 | 0.0 | 0.0 | 0.00 | 0.10 | 0.00 | 95 | 1014.9 |
| 20260508072247 | 6 | 98 | 0.0 | 0.0 | 0.00 | 0.10 | 0.00 | 95 | 1014.9 |
| 20260508071745 | 6 | 97 | 0.0 | 0.0 | 0.00 | 0.10 | 0.00 | 95 | 1014.9 |
| 20260508071243 | 6 | 98 | 0.0 | 0.0 | 0.00 | 0.10 | 0.00 | 95 | 1014.9 |
| 20260508070740 | 6 | 98 | 0.0 | 0.0 | 0.00 | 0.10 | 0.00 | 95 | 1014.9 |
| 20260508070238 | 6 | 97 | 0.0 | 0.0 | 0.00 | 0.10 | 0.00 | 95 | 1014.9 |
| 20260508065737 | 6 | 98 | 0.0 | 0.0 | 0.00 | 0.10 | 0.00 | 95 | 1015.2 |
| 20260508065203 | 6 | 98 | 0.0 | 0.0 | 0.00 | 0.10 | 0.00 | 95 | 1014.9 |
| 20260508064702 | 6 | 97 | 0.0 | 0.0 | 0.00 | 0.10 | 0.00 | 95 | 1014.9 |
| 20260508064201 | 7 | 97 | 0.0 | 0.0 | 0.00 | 0.10 | 0.00 | 95 | 1014.9 |
| 20260508063700 | 7 | 98 | 0.0 | 0.0 | 0.00 | 0.10 | 0.00 | 95 | 1014.9 |
| 20260508063157 | 7 | 97 | 0.0 | 0.0 | 0.00 | 0.10 | 0.00 | 95 | 1014.9 |
| 20260508062656 | 7 | 97 | 0.0 | 0.0 | 0.00 | 0.10 | 0.00 | 95 | 1014.9 |
| 20260508062155 | 7 | 98 | 0.0 | 0.0 | 0.00 | 0.10 | 0.00 | 95 | 1014.9 |
| 20260508061654 | 7 | 98 | 0.0 | 1.6 | 0.00 | 0.10 | 0.00 | 95 | 1014.9 |
| 20260508061153 | 7 | 97 | 0.0 | 1.6 | 0.00 | 0.10 | 0.00 | 95 | 1015.2 |
| 20260508060651 | 7 | 98 | 0.0 | 1.6 | 0.00 | 0.10 | 0.00 | 95 | 1014.9 |
| 20260508060150 | 7 | 97 | 0.0 | 1.6 | 0.00 | 0.10 | 0.00 | 95 | 1014.9 |
| 20260508055648 | 7 | 98 | 0.0 | 0.0 | 0.00 | 0.10 | 0.00 | 95 | 1015.2 |
| 20260508055145 | 7 | 98 | 0.0 | 0.0 | 0.00 | 0.10 | 0.00 | 95 | 1014.9 |
| 20260508054644 | 7 | 97 | 0.0 | 0.0 | 0.00 | 0.10 | 0.00 | 95 | 1014.9 |
| 20260508054111 | 7 | 97 | 0.0 | 0.0 | 0.00 | 0.10 | 0.00 | 95 | 1014.9 |
| 20260508053610 | 7 | 97 | 0.0 | 1.6 | 0.00 | 0.10 | 0.00 | 95 | 1014.9 |
| 20260508053038 | 7 | 98 | 0.0 | 1.6 | 0.00 | 0.10 | 0.00 | 95 | 1014.9 |
| 20260508052536 | 7 | 97 | 0.0 | 1.6 | 0.00 | 0.10 | 0.00 | 95 | 1014.9 |
| 20260508052001 | 7 | 97 | 0.0 | 1.6 | 0.00 | 0.10 | 0.00 | 95 | 1014.9 |
| 20260508051500 | 7 | 97 | 0.0 | 0.0 | 0.00 | 0.10 | 0.00 | 95 | 1014.9 |
| 20260508050958 | 7 | 98 | 0.0 | 0.0 | 0.00 | 0.10 | 0.00 | 95 | 1014.9 |
| 20260508050456 | 7 | 97 | 0.0 | 0.0 | 0.00 | 0.10 | 0.00 | 95 | 1014.9 |
| 20260508045954 | 7 | 98 | 0.0 | 0.0 | 0.00 | 0.10 | 0.00 | 95 | 1014.9 |
| 20260508045452 | 7 | 98 | 0.0 | 0.0 | 0.00 | 0.10 | 0.00 | 95 | 1014.9 |
| 20260508044920 | 7 | 97 | 0.0 | 0.0 | 0.00 | 0.10 | 0.00 | 95 | 1014.9 |
| 20260508044419 | 7 | 98 | 0.0 | 0.0 | 0.00 | 0.10 | 0.00 | 95 | 1014.9 |
| 20260508043918 | 7 | 97 | 0.0 | 0.0 | 0.00 | 0.10 | 0.00 | 95 | 1014.9 |
| 20260508043416 | 8 | 98 | 0.0 | 0.0 | 0.00 | 0.10 | 0.00 | 95 | 1014.9 |
| 20260508042915 | 8 | 98 | 0.0 | 0.0 | 0.00 | 0.10 | 0.00 | 95 | 1014.9 |
| 20260508042414 | 8 | 98 | 0.0 | 0.0 | 0.00 | 0.10 | 0.00 | 95 | 1014.9 |
| 20260508041913 | 8 | 97 | 0.0 | 0.0 | 0.00 | 0.10 | 0.00 | 95 | 1014.9 |
| 20260508041411 | 8 | 97 | 0.0 | 0.0 | 0.00 | 0.10 | 0.00 | 95 | 1014.6 |
| 20260508040909 | 8 | 97 | 0.0 | 0.0 | 0.00 | 0.10 | 0.00 | 95 | 1014.6 |
| 20260508040408 | 8 | 97 | 0.0 | 0.0 | 0.00 | 0.10 | 0.00 | 95 | 1014.6 |
| 20260508035906 | 8 | 97 | 0.0 | 0.0 | 0.00 | 0.10 | 0.00 | 95 | 1014.6 |
| 20260508035405 | 8 | 98 | 0.0 | 0.0 | 0.00 | 0.10 | 0.00 | 95 | 1014.6 |
| 20260508034904 | 8 | 97 | 0.0 | 0.0 | 0.00 | 0.10 | 0.00 | 95 | 1014.6 |
| 20260508034403 | 8 | 97 | 0.0 | 0.0 | 0.00 | 0.10 | 0.00 | 95 | 1014.6 |
| 20260508033902 | 8 | 98 | 0.0 | 0.0 | 0.00 | 0.10 | 0.00 | 95 | 1014.6 |
| 20260508033359 | 8 | 98 | 0.0 | 0.0 | 0.00 | 0.10 | 0.00 | 95 | 1014.6 |
| 20260508032858 | 8 | 98 | 0.0 | 0.0 | 0.00 | 0.10 | 0.00 | 94 | 1014.6 |
| 20260508032357 | 8 | 97 | 0.0 | 0.0 | 0.00 | 0.10 | 0.00 | 94 | 1014.6 |
| 20260508031855 | 8 | 97 | 0.0 | 0.0 | 0.00 | 0.10 | 0.00 | 94 | 1014.6 |
| 20260508031323 | 8 | 98 | 0.0 | 0.0 | 0.00 | 0.10 | 0.00 | 94 | 1014.6 |
| 20260508030822 | 8 | 98 | 0.0 | 0.0 | 0.00 | 0.10 | 0.00 | 94 | 1014.6 |
| 20260508030319 | 8 | 97 | 0.0 | 0.0 | 0.00 | 0.10 | 0.00 | 94 | 1014.6 |
| 20260508025817 | 8 | 97 | 0.0 | 0.0 | 0.00 | 0.10 | 0.00 | 94 | 1014.2 |
| 20260508025315 | 8 | 97 | 0.0 | 0.0 | 0.00 | 0.10 | 0.00 | 94 | 1014.6 |
| 20260508024743 | 8 | 97 | 0.0 | 0.0 | 0.00 | 0.10 | 0.00 | 94 | 1014.6 |
| 20260508024240 | 9 | 98 | 0.0 | 0.0 | 0.00 | 0.10 | 0.00 | 94 | 1014.2 |
| 20260508023739 | 9 | 98 | 0.0 | 0.0 | 0.00 | 0.10 | 0.00 | 94 | 1014.2 |
| 20260508023238 | 9 | 97 | 0.0 | 0.0 | 0.00 | 0.10 | 0.00 | 94 | 1014.2 |
| 20260508022737 | 9 | 97 | 0.0 | 0.0 | 0.00 | 0.10 | 0.00 | 94 | 1014.2 |
| 20260508022234 | 9 | 97 | 0.0 | 0.0 | 0.00 | 0.10 | 0.00 | 93 | 1014.2 |
| 20260508021732 | 9 | 97 | 0.0 | 0.0 | 0.00 | 0.10 | 0.00 | 93 | 1014.2 |
| 20260508021129 | 9 | 97 | 0.0 | 0.0 | 0.00 | 0.10 | 0.00 | 93 | 1014.2 |
| 20260508020627 | 10 | 98 | 0.0 | 0.0 | 0.00 | 0.10 | 0.00 | 93 | 1014.2 |
| 20260508020055 | 10 | 97 | 0.0 | 0.0 | 0.00 | 0.10 | 0.00 | 92 | 1013.9 |
| 20260508015553 | 10 | 98 | 0.0 | 0.0 | 0.00 | 0.10 | 0.00 | 92 | 1013.9 |
| 20260508015052 | 10 | 97 | 0.0 | 0.0 | 0.00 | 0.10 | 0.00 | 92 | 1013.9 |
| 20260508014520 | 10 | 96 | 0.0 | 0.0 | 0.00 | 0.10 | 0.00 | 92 | 1013.5 |
| 20260508014017 | 10 | 98 | 0.0 | 0.0 | 0.00 | 0.10 | 0.00 | 92 | 1013.5 |
| 20260508013443 | 10 | 98 | 0.0 | 0.0 | 0.00 | 0.10 | 0.00 | 91 | 1013.5 |
| 20260508012808 | 11 | 97 | 0.0 | 0.0 | 0.00 | 0.10 | 0.00 | 91 | 1013.2 |
| 20260508012308 | 11 | 98 | 0.0 | 0.0 | 0.00 | 0.10 | 0.00 | 90 | 1013.2 |
| 20260508011734 | 11 | 97 | 0.0 | 0.0 | 0.00 | 0.10 | 0.00 | 90 | 1013.2 |
| 20260508011231 | 11 | 97 | 0.0 | 0.0 | 0.00 | 0.10 | 0.00 | 90 | 1013.2 |
| 20260508010730 | 11 | 97 | 0.0 | 0.0 | 0.00 | 0.10 | 0.00 | 89 | 1013.2 |
| 20260508010228 | 12 | 98 | 0.0 | 0.0 | 0.00 | 0.10 | 0.00 | 89 | 1012.9 |
| 20260508005726 | 12 | 98 | 0.0 | 0.0 | 0.00 | 0.10 | 0.00 | 88 | 1012.9 |
| 20260508005224 | 12 | 97 | 0.0 | 0.0 | 0.00 | 0.10 | 0.00 | 87 | 1012.9 |
| 20260508004722 | 12 | 97 | 0.0 | 0.0 | 0.00 | 0.10 | 0.00 | 87 | 1012.9 |
| 20260508004221 | 13 | 97 | 0.0 | 0.0 | 0.00 | 0.10 | 0.00 | 86 | 1012.5 |
| 20260508003720 | 13 | 97 | 0.0 | 0.0 | 0.00 | 0.10 | 0.00 | 84 | 1012.5 |
| 20260508003218 | 13 | 97 | 0.0 | 0.0 | 0.00 | 0.10 | 0.00 | 82 | 1012.5 |
| 20260508002715 | 14 | 97 | 0.0 | 1.6 | 0.00 | 0.10 | 0.00 | 78 | 1012.5 |
| 20260508002141 | 14 | 97 | 0.0 | 1.6 | 0.00 | 0.13 | 0.00 | 75 | 1012.2 |
| 20260508001609 | 15 | 97 | 0.0 | 1.6 | 0.00 | 0.15 | 0.00 | 72 | 1012.2 |
| 20260508001037 | 15 | 96 | 1.6 | 1.6 | 0.00 | 0.15 | 0.00 | 71 | 1012.2 |
| 20260508000535 | 15 | 201 | 0.0 | 3.2 | 0.00 | 0.20 | 0.00 | 72 | 1011.9 |
| 20260508000034 | 15 | 201 | 0.0 | 3.2 | 0.00 | 0.23 | 0.00 | 71 | 1011.9 |
| 20260507235532 | 15 | 201 | 0.0 | 3.2 | 0.00 | 0.23 | 0.00 | 69 | 1011.9 |
| 20260507235000 | 16 | 194 | 1.6 | 3.2 | 0.00 | 0.30 | 0.00 | 67 | 1011.9 |
| 20260507234459 | 16 | 105 | 0.0 | 1.6 | 0.00 | 0.33 | 0.00 | 67 | 1011.9 |
| 20260507233957 | 16 | 105 | 0.0 | 1.6 | 0.00 | 0.36 | 0.00 | 66 | 1011.9 |
| 20260507233456 | 16 | 105 | 0.0 | 1.6 | 0.00 | 0.41 | 0.00 | 67 | 1011.9 |
| 20260507232954 | 16 | 105 | 1.6 | 1.6 | 0.00 | 0.43 | 0.00 | 66 | 1011.9 |
| 20260507232453 | 16 | 85 | 1.6 | 1.6 | 0.00 | 0.43 | 0.00 | 63 | 1011.5 |
| 20260507231920 | 17 | 283 | 0.0 | 1.6 | 0.00 | 0.46 | 0.00 | 65 | 1011.9 |
| 20260507231418 | 17 | 296 | 1.6 | 8.0 | 0.00 | 0.48 | 0.00 | 63 | 1011.9 |
| 20260507230917 | 17 | 57 | 1.6 | 8.0 | 0.00 | 0.48 | 0.00 | 63 | 1011.9 |
| 20260507230415 | 17 | 56 | 0.0 | 9.7 | 0.00 | 0.48 | 0.00 | 64 | 1011.9 |
| 20260507225913 | 17 | 62 | 3.2 | 9.7 | 0.00 | 0.48 | 0.00 | 62 | 1011.9 |
| 20260507225411 | 17 | 136 | 0.0 | 3.2 | 0.00 | 0.48 | 0.00 | 63 | 1011.9 |
| 20260507224838 | 17 | 214 | 0.0 | 3.2 | 0.00 | 0.48 | 0.00 | 63 | 1011.9 |
| 20260507224337 | 17 | 248 | 0.0 | 8.0 | 0.00 | 0.48 | 0.00 | 64 | 1011.9 |
| 20260507223836 | 17 | 73 | 0.0 | 8.0 | 0.00 | 0.48 | 0.00 | 65 | 1011.9 |
| 20260507223334 | 17 | 72 | 1.6 | 8.0 | 0.00 | 0.48 | 0.00 | 67 | 1011.9 |
| 20260507222833 | 18 | 305 | 0.0 | 8.0 | 0.00 | 0.48 | 0.00 | 69 | 1011.9 |
| 20260507222330 | 18 | 76 | 0.0 | 4.8 | 0.00 | 0.48 | 0.00 | 68 | 1011.9 |
| 20260507221829 | 18 | 141 | 0.0 | 4.8 | 0.00 | 0.48 | 0.00 | 64 | 1011.9 |
| 20260507221256 | 18 | 282 | 1.6 | 6.4 | 0.00 | 0.48 | 0.00 | 66 | 1011.9 |
| 20260507220754 | 18 | 227 | 1.6 | 6.4 | 0.00 | 0.51 | 0.00 | 59 | 1011.9 |
| 20260507220222 | 18 | 305 | 0.0 | 6.4 | 0.00 | 0.53 | 0.00 | 64 | 1011.9 |
| 20260507215721 | 18 | 44 | 3.2 | 6.4 | 0.00 | 0.56 | 0.00 | 58 | 1011.9 |
| 20260507215148 | 18 | 251 | 1.6 | 4.8 | 0.00 | 0.58 | 0.00 | 60 | 1011.9 |
| 20260507214647 | 18 | 240 | 3.2 | 4.8 | 0.00 | 0.58 | 0.00 | 71 | 1011.5 |
| 20260507214145 | 18 | 69 | 3.2 | 4.8 | 0.00 | 0.61 | 0.00 | 62 | 1011.9 |
| 20260507213644 | 18 | 8 | 0.0 | 4.8 | 0.00 | 0.64 | 0.00 | 65 | 1011.5 |
| 20260507213111 | 18 | 104 | 1.6 | 4.8 | 0.00 | 0.69 | 0.00 | 63 | 1011.5 |
| 20260507212609 | 18 | 102 | 3.2 | 4.8 | 0.00 | 0.71 | 0.00 | 57 | 1011.5 |
| 20260507212036 | 18 | 246 | 1.6 | 1.6 | 0.00 | 0.74 | 0.00 | 63 | 1011.5 |
| 20260507211534 | 18 | 273 | 0.0 | 1.6 | 0.00 | 0.76 | 0.00 | 62 | 1011.5 |
| 20260507210931 | 18 | 44 | 0.0 | 1.6 | 0.00 | 0.76 | 0.00 | 66 | 1011.2 |
| 20260507210356 | 18 | 44 | 0.0 | 8.0 | 0.00 | 0.79 | 0.00 | 61 | 1011.2 |
| 20260507205823 | 18 | 44 | 0.0 | 8.0 | 0.00 | 0.84 | 0.00 | 63 | 1011.2 |
| 20260507205321 | 18 | 44 | 0.0 | 14.5 | 0.00 | 0.86 | 0.00 | 63 | 1011.2 |
| 20260507204820 | 18 | 10 | 3.2 | 14.5 | 0.00 | 0.86 | 0.00 | 60 | 1011.2 |
| 20260507204319 | 18 | 2 | 3.2 | 16.1 | 0.00 | 0.86 | 0.00 | 61 | 1011.2 |
| 20260507203817 | 19 | 3 | 4.8 | 16.1 | 0.00 | 0.89 | 0.00 | 59 | 1011.2 |
| 20260507203315 | 19 | 3 | 4.8 | 9.7 | 0.00 | 0.91 | 0.00 | 59 | 1011.2 |